Dewpoint
54 54 55 55 54 54 54 55 54 54 54 54 54 54 56 56 57 54 36 30 39 57 64 59 51 46 45 49 60 64 57 55 56 57 57 59 57 60 59 56 58 59 60 63 67
54 54 54 54 54 54 54 54 54 54 54 54 54 54 55 56 52 48 47 51 56 69 57 48 47 39 34 39 51 60 54 56 59 60 58 60 58 57 56 57 58 60 63 67 69
54 54 54 54 54 54 54 54 54 54 54 54 54 54 55 56 44 18 54 56 61 62 43 42 42 35 38 42 44 58 54 58 58 60 59 60 58 58 57 57 56 60 64 66 67
54 54 54 54 54 54 54 54 54 53 53 53 53 54 56 52 2 46 60 60 63 54 31 33 37 38 42 43 46 55 55 56 57 61 60 60 59 58 59 60 58 62 65 65 65
54 54 54 54 54 54 54 54 54 53 53 53 53 54 51 40 24 33 67 61 60 46 31 29 42 44 42 45 50 53 52 58 61 60 60 60 60 60 59 61 60 63 64 64 64
54 54 53 53 53 54 54 54 53 52 53 53 52 55 46 11 18 57 58 57 52 33 28 35 41 46 46 45 44 47 57 61 61 60 62 59 62 61 61 61 61 62 63 63 63
54 54 54 53 53 53 53 53 53 53 53 53 53 53 46 12 39 54 54 50 39 26 25 29 46 47 47 43 45 58 57 60 61 62 61 61 60 58 61 60 61 61 62 62 63
54 54 53 53 53 53 53 54 54 53 52 53 54 50 29 32 40 45 37 32 29 21 28 27 44 46 46 41 47 56 54 53 59 60 61 59 55 60 61 61 60 60 61 61 62
54 54 53 53 52 52 54 54 54 54 54 55 48 44 29 46 40 36 38 31 27 23 20 29 41 41 31 26 31 39 47 51 55 60 59 57 54 59 61 60 60 61 60 60 61
54 54 53 53 52 52 54 54 56 56 54 53 50 42 39 36 38 34 41 26 23 22 26 29 31 28 25 25 23 32 43 47 49 56 58 56 55 58 59 59 60 61 60 60 60
55 54 53 53 52 52 49 51 44 41 48 28 30 39 39 40 37 36 39 33 29 29 32 32 27 28 25 25 26 24 24 33 56 57 57 56 56 58 60 59 59 60 58 59 60
56 54 53 53 52 52 48 37 37 40 33 44 42 40 41 40 34 35 33 27 29 31 31 27 24 25 26 26 24 25 24 49 56 58 56 57 56 59 60 59 58 60 62 58 60
55 55 55 53 52 48 44 38 40 41 33 29 42 38 34 36 33 32 34 30 28 27 29 28 28 26 25 24 23 22 20 48 52 56 57 56 55 57 60 61 60 62 62 63 61
55 55 54 52 44 44 40 43 41 38 23 23 26 32 32 33 31 33 34 29 26 26 27 27 29 27 26 25 24 21 21 35 54 49 46 53 45 54 58 59 60 60 61 63 63
55 55 53 51 42 37 31 38 39 27 19 27 25 29 30 30 30 31 32 30 23 24 24 25 22 26 26 25 23 22 36 35 52 47 46 47 43 46 57 56 58 58 60 63 61
54 54 52 49 48 44 44 40 26 22 22 28 23 21 27 25 23 30 29 29 31 27 26 25 27 24 24 24 23 49 47 48 47 46 39 43 42 45 53 55 58 58 59 62 63
53 52 50 49 32 41 40 34 24 22 29 26 26 20 25 23 24 28 28 26 24 24 27 26 26 28 25 22 35 47 44 39 38 39 39 42 46 45 54 56 58 58 58 60 64
51 51 50 49 47 41 37 33 26 31 31 32 27 19 23 23 24 27 26 25 25 25 26 24 22 26 22 24 25 43 39 37 32 35 36 47 43 47 57 58 58 58 57 60 64
50 44 45 45 49 42 35 29 27 32 33 31 25 26 27 30 29 30 28 24 25 25 22 26 24 28 25 21 32 39 38 36 34 34 39 44 50 55 57 59 59 58 59 61 63
46 42 36 45 47 38 33 32 33 34 35 29 25 27 26 30 30 29 30 31 24 25 26 27 25 27 28 30 31 32 34 29 30 28 27 43 45 46 54 56 59 60 60 61 63
42 31 31 45 40 36 29 28 32 34 37 26 27 26 27 29 32 31 32 31 29 28 28 30 28 26 28 28 29 28 28 27 28 30 31 36 41 54 54 56 56 58 60 61 63
38 31 36 37 31 29 26 28 31 19 34 29 29 28 28 30 30 30 29 30 34 29 23 30 28 26 27 29 30 27 30 27 27 28 38 38 41 55 57 56 56 58 60 61 62
38 35 41 34 30 27 24 25 15 17 18 26 28 27 29 28 25 31 32 32 33 26 19 24 26 25 25 28 26 25 27 27 26 38 39 32 38 55 57 56 58 58 59 61 61
39 27 30 27 26 22 27 21 13 21 23 24 27 26 26 28 31 29 29 28 26 26 45 35 29 27 27 24 25 24 25 25 26 31 38 38 47 53 54 54 57 59 60 60 60
40 37 35 30 26 21 22 17 19 19 23 26 26 28 27 30 27 29 30 26 22 37 29 26 27 32 32 29 28 26 23 26 23 28 30 40 46 51 53 54 57 59 58 58 58
39 37 40 36 35 21 24 19 18 21 25 24 24 25 27 30 34 29 29 27 28 27 30 27 28 32 30 33 29 22 24 30 47 48 47 48 46 53 53 55 57 58 57 56 56
47 45 39 36 23 23 21 21 23 27 26 28 27 24 22 22 23 28 34 30 27 27 29 28 28 28 26 30 27 26 25 27 37 48 48 45 47 53 52 55 56 57 57 56 56
Lifted_Index
16 16 16 16 16 15 15 15 16 16 16 16 16 16 15 15 14 13 13 13 11 8 6 6 8 7 3 -0 -1 -1 -1 -1 -1 -1 -1 -2 -1 -1 0 0 0 -0 -0 -1 -2
16 16 16 16 15 15 15 15 15 15 16 16 16 16 15 14 13 13 13 12 9 6 6 7 9 8 4 0 -1 -1 -1 -1 -1 -1 -1 -2 -2 -1 0 0 0 0 -1 -1 -2
16 16 16 15 15 15 15 14 15 15 15 16 16 16 15 13 12 11 11 10 7 5 6 8 9 7 3 0 -0 -0 -0 -1 -1 -1 -1 -2 -1 -1 -0 0 0 -0 -1 -2 -2
16 16 15 15 15 14 14 14 14 15 15 15 16 15 14 12 10 8 8 8 7 6 7 8 7 4 1 0 0 0 -0 -1 -2 -2 -1 -1 -1 -1 -0 -0 0 -0 -1 -2 -2
16 16 15 15 14 14 14 14 14 14 15 15 15 15 14 12 9 7 6 6 7 8 8 8 6 2 0 -0 1 1 0 -1 -2 -2 -1 -1 -1 -1 -0 -0 -0 -1 -1 -1 -1
16 16 15 14 14 14 14 14 14 14 14 14 14 14 13 11 9 7 6 7 8 9 9 7 5 2 0 0 1 0 -1 -2 -3 -2 -2 -1 -1 -1 -1 -1 -1 -1 -1 -1 -1
16 16 15 15 14 14 14 14 14 13 13 13 13 12 12 10 8 7 7 8 10 10 9 7 4 2 1 1 0 -1 -2 -3 -3 -2 -2 -1 -1 -1 -1 -1 -1 -1 -1 -1 -1
15 15 15 15 14 14 13 13 13 13 13 13 12 11 11 10 8 7 8 9 10 10 9 6 3 1 2 1 -1 -2 -2 -2 -3 -2 -2 -1 -1 -1 -1 -1 -1 -1 -1 -1 -1
14 14 14 14 14 13 12 12 12 12 12 12 12 11 10 9 8 8 8 9 10 10 8 5 2 1 1 1 -0 -1 -1 -2 -2 -2 -2 -1 -1 -1 -1 -1 -1 -1 -1 -1 -1
14 13 13 13 12 11 11 10 10 10 10 10 10 9 8 7 8 8 8 9 10 9 7 3 1 1 1 1 1 0 0 -1 -2 -2 -2 -1 -1 -1 -1 -1 -1 -1 -1 -1 -1
13 12 12 12 11 10 10 9 8 8 8 9 9 8 7 6 7 7 8 9 9 8 5 2 1 1 1 2 2 2 1 -0 -2 -2 -2 -1 -1 -1 -1 -1 -1 -1 -1 -1 -1
12 11 10 10 10 9 8 7 7 7 7 8 7 6 5 5 6 6 6 7 7 6 3 2 2 2 2 3 3 3 2 -0 -2 -3 -2 -2 -1 -1 -1 -1 -0 -0 -1 -1 -1
12 10 9 9 9 8 7 6 6 6 7 6 6 5 4 5 5 4 4 5 5 4 3 3 3 3 3 3 3 3 2 0 -2 -2 -2 -1 -1 -1 -1 -1 -1 -1 -1 -1 -1
11 10 9 8 7 6 5 5 6 5 5 5 4 4 4 4 4 4 3 4 4 3 3 4 4 4 4 4 3 3 3 1 -1 -2 -1 -1 -0 -1 -1 -1 -1 -1 -1 -1 -1
11 10 8 7 6 5 5 5 5 4 3 3 4 4 4 4 4 3 3 3 4 4 4 4 5 5 5 5 4 2 2 1 -0 -1 -0 -0 0 -0 -1 -2 -1 -1 -0 -0 -1
10 9 8 7 5 5 4 4 3 3 2 3 3 3 3 3 3 3 3 3 4 4 4 5 5 5 5 5 4 1 -0 -0 -1 -1 -0 0 0 -0 -1 -1 -1 -1 -0 -0 -0
9 8 7 6 5 4 4 3 2 2 2 2 3 3 2 2 3 3 3 3 3 4 4 4 4 4 5 5 3 1 -1 -1 -1 -0 -0 0 0 -0 -1 -1 -1 -1 -0 -0 -0
8 8 7 6 5 4 3 2 1 1 1 2 2 2 2 2 2 2 3 3 3 3 3 3 3 3 4 4 3 1 0 -0 -0 -0 -0 -1 -1 -0 -1 -1 -1 -1 -0 -0 -0
8 7 6 5 4 3 2 1 1 1 1 1 2 2 2 2 1 2 2 2 2 3 3 3 2 2 3 3 3 2 1 0 0 0 -0 -1 -1 -1 -1 -1 -1 -1 -1 -0 -0
7 6 5 4 3 2 1 1 0 0 0 1 1 1 2 1 1 1 1 1 2 2 2 2 2 2 2 2 2 2 1 1 0 0 -0 -1 -1 -1 -1 -1 -1 -2 -1 -1 -1
6 5 4 3 2 1 1 1 1 0 0 1 1 1 1 1 1 1 1 1 1 1 1 2 2 1 1 1 1 1 1 0 0 1 1 0 -0 -1 -1 -1 -2 -2 -2 -2 -2
4 3 3 3 2 1 1 1 1 1 1 1 1 0 1 1 1 0 0 0 0 1 1 1 1 1 0 0 0 0 -0 -0 0 1 1 1 0 -0 -1 -1 -1 -1 -1 -1 -1
2 2 2 2 2 1 1 2 2 2 1 1 1 1 1 0 0 0 0 0 0 0 0 1 1 1 0 0 0 -0 -1 -1 -0 0 0 1 0 -1 -1 -1 -1 -1 -1 -1 -1
2 1 1 2 1 1 1 2 2 3 2 2 1 1 1 1 0 -0 0 1 1 1 1 1 1 1 0 -0 -0 -0 -0 -1 -1 -1 -0 0 0 -1 -2 -2 -1 -2 -2 -2 -1
1 1 1 2 2 2 2 2 3 3 3 2 2 2 1 1 0 0 0 1 1 2 2 1 1 1 0 -0 -0 -0 0 -0 -1 -1 -1 -0 -1 -1 -2 -2 -2 -2 -2 -2 -2
1 1 1 2 2 2 2 2 3 3 3 3 3 2 2 1 1 1 1 1 1 2 2 1 1 1 0 0 0 0 0 0 -1 -1 -1 -1 -1 -2 -2 -2 -2 -2 -2 -2 -1
1 1 1 2 2 2 2 3 3 3 3 3 3 3 2 2 1 1 1 1 1 1 1 1 1 1 0 0 0 0 1 0 -1 -1 -2 -1 -1 -2 -2 -2 -2 -2 -2 -1 -1